Waarnemingen

Advertentie
Mijn weer
Boulogne, Frankrijk (7002): temperatuur & dauwpunt: 09.10.2019 21:00:00 - 15.10.2019 21:00:00 (CEST)Boulogne, Frankrijk (7002): windsnelheid & windstoten: 09.10.2019 21:00:00 - 15.10.2019 21:00:00 (CEST)Boulogne, Frankrijk (7002): windrichting: 09.10.2019 21:00:00 - 15.10.2019 21:00:00 (CEST)Boulogne, Frankrijk (7002): luchtdruk: 09.10.2019 21:00:00 - 15.10.2019 21:00:00 (CEST)Boulogne, Frankrijk (7002): zicht: 09.10.2019 21:00:00 - 15.10.2019 21:00:00 (CEST)Boulogne, Frankrijk (7002): neerslag: 09.10.2019 21:00:00 - 15.10.2019 21:00:00 (CEST)
Datum & Tijd tt [°C] td [°C] ff [km/u] ff [kn] fx [km/u] fx [kn] dd ppp [hPa] vv [km] rr [mm]
15.10.2019 21:00:00 - - - - - - - - - -
15.10.2019 20:00:00 13,8 9,4 20 11 36 19 ZW 1006,9 - 0,0
15.10.2019 19:00:00 14,0 10,2 22 12 39 21 ZW 1006,3 - 0,0
15.10.2019 18:00:00 14,4 10,8 22 12 41 22 ZW 1006,0 - 0,0
15.10.2019 17:00:00 14,4 10,8 23 12 41 22 ZW 1005,8 16 0,0
15.10.2019 16:00:00 14,2 10,8 24 13 40 22 ZW 1006,0 - 0,0
15.10.2019 15:00:00 14,4 11,2 23 13 46 25 ZW 1005,7 - 0,0
15.10.2019 14:00:00 14,8 11,8 29 15 45 25 ZW 1005,5 10 0,0
15.10.2019 13:00:00 14,4 11,9 23 13 45 24 ZW 1005,8 - 0,0
15.10.2019 12:00:00 13,5 12,7 24 13 40 22 WZW 1005,6 - 1,4
15.10.2019 11:00:00 14,3 12,8 23 13 39 21 ZW 1005,2 - 0,0
15.10.2019 10:00:00 14,3 12,5 16 9 29 15 ZZW 1004,9 - 0,0
15.10.2019 09:00:00 13,7 12,3 13 7 37 20 Z 1004,6 - 0,0
15.10.2019 08:00:00 13,9 12,1 21 11 37 20 ZZW 1004,2 - 0,0
15.10.2019 07:00:00 13,9 11,9 19 10 43 23 ZZW 1004,2 - 0,0
15.10.2019 06:00:00 14,2 12,8 19 11 40 22 ZZW 1004,2 - 0,0
15.10.2019 05:00:00 14,1 13,0 17 9 40 22 ZZW 1003,9 - 0,4
15.10.2019 04:00:00 14,7 12,9 25 13 48 26 WZW 1003,7 - 0,0
15.10.2019 03:00:00 14,0 13,4 32 18 54 29 WZW 1003,9 - 0,6
15.10.2019 02:00:00 14,4 13,8 31 17 55 30 ZW 1004,3 8 0,2
15.10.2019 01:00:00 15,2 13,7 29 16 53 29 ZZW 1003,6 - 0,0
15.10.2019 00:00:00 15,2 13,7 24 13 50 27 Z 1003,4 - 0,0
14.10.2019 23:00:00 15,1 13,8 22 12 49 26 Z 1003,0 8 0,0
14.10.2019 22:00:00 14,8 13,2 22 12 41 22 ZZO 1003,0 - 0,0
14.10.2019 21:00:00 15,0 13,5 19 10 50 27 ZO 1001,5 - 3,1
14.10.2019 20:00:00 15,8 14,7 50 27 97 53 ZZW 1003,9 - 8,4
14.10.2019 19:00:00 18,8 15,5 21 11 43 23 ZO 1002,5 - 0,0
14.10.2019 18:00:00 19,1 15,2 18 10 35 19 ZO 1002,3 - 0,2
14.10.2019 17:00:00 19,6 15,3 17 9 35 19 ZO 1002,6 10 0,0
14.10.2019 16:00:00 19,7 15,3 16 8 36 19 ZZO 1003,6 - 0,0
14.10.2019 15:00:00 19,9 15,5 20 11 36 19 ZZO 1004,6 - 0,0
14.10.2019 14:00:00 17,3 14,6 19 10 33 18 OZO 1005,6 7 0,0
14.10.2019 13:00:00 15,5 14,0 15 8 31 17 O 1006,5 - 0,0
14.10.2019 12:00:00 14,2 13,1 10 6 25 14 ONO 1007,1 - 0,0
14.10.2019 11:00:00 13,0 11,9 4 2 26 14 ZO 1008,2 6 0,6
14.10.2019 10:00:00 12,7 11,8 18 10 35 19 O 1008,8 - 1,0
14.10.2019 09:00:00 12,8 11,7 19 11 37 20 O 1009,2 - 1,0
14.10.2019 08:00:00 12,9 11,3 14 7 29 16 O 1010,2 8 0,0
14.10.2019 07:00:00 12,7 11,4 9 5 17 9 O 1011,1 - 0,0
14.10.2019 06:00:00 12,7 11,1 9 5 17 9 ZO 1011,5 - 0,0
14.10.2019 05:00:00 12,9 11,1 7 4 13 7 ZO 1012,0 10 0,0
14.10.2019 04:00:00 13,1 11,2 6 3 10 5 O 1011,7 - 0,0
14.10.2019 03:00:00 13,6 10,8 6 3 9 5 OZO 1012,5 - 0,0
14.10.2019 02:00:00 14,2 10,2 4 2 17 9 ZZO 1012,8 - 0,0
14.10.2019 01:00:00 14,7 9,7 15 8 28 15 W 1012,9 - 0,0
14.10.2019 00:00:00 14,6 10,6 19 10 37 20 W 1012,1 - 0,0
13.10.2019 23:00:00 14,7 10,9 24 13 47 25 W 1011,7 10 0,0
13.10.2019 22:00:00 14,8 11,2 22 12 47 26 W 1010,8 - 0,0
13.10.2019 21:00:00 15,1 11,9 27 14 53 29 WZW 1009,8 - 0,0
13.10.2019 20:00:00 15,4 12,3 30 16 59 32 WZW 1008,9 - 0,0
13.10.2019 19:00:00 15,4 13,6 29 16 52 28 WZW 1008,1 - 0,2
13.10.2019 18:00:00 15,4 13,6 35 19 50 27 WZW 1007,1 - 0,0
13.10.2019 17:00:00 15,3 14,0 34 19 61 33 WZW 1006,5 9 0,0
13.10.2019 16:00:00 15,7 13,7 42 23 68 37 WZW 1005,6 - 0,0
13.10.2019 15:00:00 18,3 15,5 30 16 58 31 ZZW 1004,3 - 0,0
13.10.2019 14:00:00 18,2 15,4 32 17 64 34 ZZW 1004,2 9 0,0
13.10.2019 13:00:00 18,2 15,3 30 16 57 31 Z 1003,7 - 0,0
13.10.2019 12:00:00 18,6 16,2 17 9 46 25 Z 1003,6 - 0,0
13.10.2019 11:00:00 18,0 14,1 27 15 52 28 Z 1004,0 - 0,0
13.10.2019 10:00:00 17,0 12,7 27 14 44 24 Z 1004,3 - 0,0
13.10.2019 09:00:00 15,6 13,1 21 12 44 24 ZZO 1004,4 - 0,0
13.10.2019 08:00:00 15,3 13,3 20 11 35 19 ZZO 1004,5 9 0,0
13.10.2019 07:00:00 15,4 13,4 22 12 37 20 Z 1005,0 - 0,0
13.10.2019 06:00:00 15,1 13,5 15 8 38 20 Z 1005,5 - 0,0
13.10.2019 05:00:00 16,0 13,5 22 12 41 22 Z 1006,4 9 0,0
13.10.2019 04:00:00 16,0 13,8 22 12 39 21 Z 1006,1 - 0,0
13.10.2019 03:00:00 16,5 14,3 22 12 42 23 Z 1006,8 - 0,0
13.10.2019 02:00:00 16,4 14,4 21 12 44 24 ZZW 1006,9 8 0,0
13.10.2019 01:00:00 16,1 13,8 23 13 45 24 Z 1007,4 - 0,0
13.10.2019 00:00:00 15,4 13,8 22 12 37 20 Z 1007,7 - 0,0
12.10.2019 23:00:00 14,1 13,6 20 11 30 16 ZZO 1008,2 - 0,0
12.10.2019 22:00:00 13,6 13,4 15 8 26 14 ZO 1008,3 - 0,0
12.10.2019 21:00:00 12,0 11,7 21 11 29 16 ONO 1008,4 - 0,2
12.10.2019 20:00:00 12,3 12,0 13 7 22 12 ONO 1009,2 - 0,4
12.10.2019 19:00:00 12,6 12,3 13 7 21 11 ONO 1008,6 - 0,0
12.10.2019 18:00:00 12,6 12,3 11 6 19 10 ONO 1008,5 - 0,0
12.10.2019 17:00:00 12,6 12,3 7 4 21 11 NO 1009,1 3,0 0,0
12.10.2019 16:00:00 12,5 12,2 8 4 20 11 NO 1009,3 - 0,2
12.10.2019 15:00:00 12,5 12,2 10 6 20 11 NNO 1009,6 - 0,2
12.10.2019 14:00:00 12,6 12,3 11 6 21 11 N 1010,0 - 0,0
12.10.2019 13:00:00 12,9 12,6 9 5 18 10 N 1009,9 - 0,0
12.10.2019 12:00:00 13,1 12,8 4 2 7 4 N 1009,4 - 0,2
12.10.2019 11:00:00 12,9 12,6 4 2 6 4 WNW 1009,3 - 0,0
12.10.2019 10:00:00 12,7 12,4 0 0 7 4 N 1008,9 - 0,2
12.10.2019 09:00:00 12,2 11,9 5 3 18 10 NNO 1008,6 - 0,4
12.10.2019 08:00:00 11,9 11,6 9 5 26 14 NNO 1008,1 - 1,0
12.10.2019 07:00:00 13,2 12,9 8 5 18 10 NW 1007,9 - 1,4
12.10.2019 06:00:00 13,9 13,3 9 5 56 31 WZW 1007,6 - 1,6
12.10.2019 05:00:00 15,7 13,4 35 19 61 33 ZW 1007,2 8 0,0
12.10.2019 04:00:00 15,9 13,6 37 20 61 33 ZW 1007,4 - 0,0
12.10.2019 03:00:00 16,0 13,5 31 17 60 33 ZW 1007,7 - 0,0
12.10.2019 02:00:00 16,3 13,4 36 19 66 36 ZW 1007,6 - 0,0
12.10.2019 01:00:00 16,6 13,3 36 19 61 33 ZW 1007,8 - 0,0
12.10.2019 00:00:00 16,5 13,8 28 15 53 29 ZZW 1007,9 - 0,0
11.10.2019 23:00:00 16,5 14,0 28 15 55 30 ZZW 1007,9 - 0,0
11.10.2019 22:00:00 16,9 13,6 31 17 61 33 ZZW 1008,3 - 0,0
11.10.2019 21:00:00 17,0 13,5 32 18 64 35 ZW 1008,3 - 0,0
11.10.2019 20:00:00 16,8 13,7 40 22 70 38 ZW 1008,4 8 0,0
11.10.2019 19:00:00 17,0 13,5 37 20 65 35 ZW 1008,5 - 0,0
11.10.2019 18:00:00 16,8 13,7 42 23 69 37 ZW 1008,8 - 0,0
11.10.2019 17:00:00 16,8 13,3 40 22 75 40 ZW 1008,9 - 0,0
11.10.2019 16:00:00 16,6 13,3 37 20 76 41 ZW 1009,1 - 0,0
11.10.2019 15:00:00 16,4 12,9 37 20 71 39 ZW 1009,4 - 0,0
11.10.2019 14:00:00 15,7 13,4 34 18 66 36 ZZW 1010,0 - 0,0
11.10.2019 13:00:00 15,3 13,1 37 20 72 39 ZZW 1011,0 - 0,2
11.10.2019 12:00:00 15,6 13,1 37 20 68 37 ZZW 1010,9 - 0,0
11.10.2019 11:00:00 14,8 13,5 35 19 64 34 ZZW 1011,2 8 0,0
11.10.2019 10:00:00 15,4 13,2 36 19 74 40 ZW 1011,4 - 0,0
11.10.2019 09:00:00 15,5 13,2 36 19 67 36 ZW 1011,1 - 0,0
11.10.2019 08:00:00 15,6 13,1 35 19 65 35 ZW 1011,4 - 0,0
11.10.2019 07:00:00 15,4 13,2 35 19 65 35 ZW 1011,8 - 0,0
11.10.2019 06:00:00 15,2 13,6 32 17 61 33 ZZW 1012,3 - 0,0
11.10.2019 05:00:00 15,2 13,6 32 18 61 33 ZW 1012,7 - 0,0
11.10.2019 04:00:00 15,4 13,4 34 18 59 32 ZW 1012,9 - 0,0
11.10.2019 03:00:00 15,5 13,2 35 19 69 38 ZW 1013,3 - 0,0
11.10.2019 02:00:00 15,2 12,7 29 16 55 30 ZZW 1013,4 - 0,0
11.10.2019 01:00:00 15,1 11,9 29 16 63 34 ZZW 1013,6 - 0,0
11.10.2019 00:00:00 15,2 12,0 29 16 60 32 ZZW 1014,0 - 0,0
10.10.2019 23:00:00 15,5 11,9 37 20 64 35 ZW 1014,0 15 0,0
10.10.2019 22:00:00 15,2 11,0 36 19 63 34 ZW 1014,6 - 0,0
10.10.2019 21:00:00 15,2 11,0 42 23 63 34 ZW 1014,7 - 0,0
10.10.2019 20:00:00 15,1 9,7 42 23 71 39 WZW 1015,1 - 0,0
10.10.2019 19:00:00 15,1 9,7 41 22 61 33 WZW 1015,0 - 0,0
10.10.2019 18:00:00 15,5 9,8 36 20 64 35 WZW 1014,8 - 0,0
10.10.2019 17:00:00 15,5 10,5 40 21 64 34 WZW 1014,7 - 0,0
10.10.2019 16:00:00 15,4 9,5 39 21 60 32 WZW 1015,1 - 0,0
10.10.2019 15:00:00 15,4 9,5 35 19 56 30 WZW 1014,9 - 0,0
10.10.2019 14:00:00 15,8 9,7 30 16 55 30 WZW 1014,8 15 0,0
10.10.2019 13:00:00 14,9 9,3 36 19 54 29 W 1015,0 - 0,0
10.10.2019 12:00:00 14,4 8,8 34 18 54 29 W 1014,6 - 0,0
10.10.2019 11:00:00 13,9 9,5 36 19 55 30 W 1014,0 15 0,0
10.10.2019 10:00:00 13,5 8,8 41 22 60 33 W 1013,3 - 0,0
10.10.2019 09:00:00 13,3 9,0 40 21 58 32 W 1012,6 - 0,0
10.10.2019 08:00:00 12,4 8,5 34 18 54 29 W 1012,1 15 0,0
10.10.2019 07:00:00 12,2 8,5 31 17 56 30 W 1011,3 - 0,0
10.10.2019 06:00:00 12,2 7,7 36 19 53 29 W 1010,5 - 0,0
10.10.2019 05:00:00 12,3 8,2 39 21 52 28 W 1010,0 10 0,0
10.10.2019 04:00:00 12,4 8,5 29 16 56 30 WNW 1009,0 - 0,0
10.10.2019 03:00:00 12,4 8,5 39 21 60 33 W 1008,7 - 0,0
10.10.2019 02:00:00 12,8 8,1 37 20 56 30 W 1008,1 10 0,0
10.10.2019 01:00:00 13,0 8,7 41 22 59 32 W 1007,7 - 0,0
10.10.2019 00:00:00 13,2 8,1 36 19 65 35 W 1007,2 - 1,4
09.10.2019 23:00:00 12,2 9,6 31 17 56 31 W 1006,9 6 0,8
09.10.2019 22:00:00 13,4 9,3 31 17 58 31 WZW 1007,3 - 0,0
09.10.2019 21:00:00 13,6 8,4 34 18 56 30 WZW 1007,3 - 0,0

tt = temperatuur
td = dauwpunt
ff = windsnelheid
fx = windstoten
dd = windrichting
ppp = luchtdruk
vv = zicht
rr = neerslag

Weerstations in de omgeving